Погода в Дьячеве

Россия / Ивановская область     57°24′36″N   42°28′36″E
темп.,
°C
ветер,
м/с
пор.,
м/с
влажн.,
%
обл.,
%
осадки,
мм/ч
давл.,
гПа
погр.,
м
13 апреля, вт
вт1300:00+5вюв41398100 0.0 1033477
03:00+5юв31098100 0.1 1032356
06:00+4юв399897 0.0 1031233
09:00+9ююв3786100 0.0 1030278
12:00+15ююв4867100 0.0 1028574
15:00+17ю4760100 0.0 10271060
18:00+13ююв2871100 0.0 1026154
21:00+9ю3117959 0.0 1026179
14 апреля, ср
ср1400:00+8ю3117993 0.0 1026180
03:00+7ю39827 0.0 1026153
06:00+6ю288378 0.0 1025136
09:00+12ю386398 0.0 1024321
12:00+16ю474877 0.0 1023906
15:00+18ю464380 0.0 10211416
18:00+14юв2663100 0.0 1020121
21:00+10ююв2768100 0.0 1021110
15 апреля, чт
чт1500:00+9ю2271100 0.0 102034
03:00+8ююз1174100 0.0 102010
06:00+7ю1175100 0.0 102010
09:00+13юв01565 0.0 1020255
12:00+17в114398 0.0 1019833
15:00+18всв1239100 0.0 10181786
18:00+14ссв486694 0.0 1019430
21:00+8ссв51181100 0.0 1021504
16 апреля, пт
пт1600:00+6св41185100 0.0 1022490
03:00+5св4108633 0.0 1022495
06:00+4св41087100 0.0 1023504
09:00+5св4884100 0.0 1024673
12:00+8всв466568 0.0 1025790
15:00+11св563656 0.0 10241449
18:00+9св484257 0.0 1025456
21:00+5ссв3106372 0.0 1027248
17 апреля, сб
сб1700:00+3ссв310695 0.0 1028264
03:00+1ссв39760 0.0 1029184
06:00+1ссв310733 0.0 1031285
09:00+6св57585 0.0 1032917
12:00+8св57323 0.0 10321470
15:00+9св46300 0.0 10321713
18:00+7св373998 0.0 1033684
21:00+3св255820 0.0 103483